RH
9 8 8 16 24 23 21 23 23 22 21 25 34 50 58 45 25 15 7 4 4 4 5 5 5 6 6 7 7 9 19 66 94 91 60 23 58 18 6 9 12 27 25 26 39 87 85 70 60
10 9 9 13 21 22 22 22 22 18 28 32 40 47 46 29 24 12 5 5 4 6 7 7 6 6 7 8 9 10 16 26 20 27 18 19 14 12 12 16 14 28 36 46 78 87 89 76 58
13 10 10 12 17 20 25 20 22 25 30 23 34 31 29 27 21 11 4 3 5 7 6 7 7 7 7 9 10 14 18 30 38 32 58 60 44 30 22 14 13 36 44 55 74 89 90 92 56
14 12 12 15 18 19 20 18 20 20 24 34 36 31 28 23 20 11 4 3 4 6 7 13 11 7 9 9 10 14 15 20 29 39 62 84 68 99 36 18 17 39 69 89 87 92 88 82 61
18 14 16 18 21 21 20 22 23 18 21 29 41 42 28 23 17 14 5 3 4 6 12 17 20 19 11 16 11 12 20 35 37 64 48 95 73 89 62 64 66 80 98 87 88 95 88 65 71
20 18 18 22 24 22 31 32 26 18 45 31 38 33 23 26 19 16 6 4 4 11 18 26 31 42 37 25 28 25 37 45 49 94 97 81 94 96 97 97 85 86 96 83 84 93 56 29 40
20 20 21 25 26 24 26 26 31 35 38 30 34 23 21 30 22 16 7 5 7 18 20 30 43 46 33 43 51 48 34 45 50 63 74 97 91 96 96 95 80 92 92 76 82 76 58 32 46
22 15 22 25 27 26 23 21 23 25 25 20 32 36 19 26 27 23 11 6 6 14 16 29 42 41 30 73 78 88 75 54 69 80 80 96 98 94 96 96 80 99 84 78 89 87 81 84 59
20 15 25 26 28 27 26 22 22 28 28 25 29 34 21 21 23 26 17 8 8 13 22 22 29 40 39 34 87 93 96 97 94 93 85 98 97 95 96 98 92 76 72 79 91 97 98 71 70
17 16 27 29 29 29 28 26 24 29 35 30 34 27 22 22 32 29 20 9 10 14 17 15 21 31 36 26 41 37 63 94 93 94 99 90 82 91 94 96 95 89 88 64 91 100 87 87 95
21 14 30 30 31 31 30 29 26 28 38 42 51 45 31 21 33 31 20 10 11 12 13 12 10 22 32 26 27 20 49 89 90 95 90 79 71 78 84 95 96 96 65 47 70 90 87 97 79
15 16 28 31 34 34 31 31 29 29 38 47 55 45 29 24 40 33 19 11 11 14 11 11 9 13 26 23 14 22 62 83 93 95 93 80 72 66 97 98 91 62 44 53 81 94 96 82 96
14 22 22 28 37 36 35 33 34 30 34 45 43 49 39 35 41 34 18 10 11 16 13 9 8 8 20 20 12 29 58 68 73 90 97 90 83 73 83 97 80 37 38 71 97 98 81 90 94
26 14 15 19 26 30 35 46 42 36 46 49 50 43 42 40 40 38 17 11 14 17 14 12 8 8 17 16 16 29 67 94 91 76 91 79 93 79 96 96 70 39 48 61 87 84 81 89 90
18 10 9 15 30 37 43 28 44 42 45 45 44 46 41 45 41 38 16 11 18 14 14 11 9 17 17 14 16 25 62 87 88 75 76 64 98 99 97 93 63 41 38 43 55 70 86 80 95
18 11 7 9 31 42 52 13 38 47 48 50 45 49 44 46 36 36 24 14 19 16 14 11 10 18 17 13 13 28 57 65 75 71 72 92 97 97 86 93 64 33 32 38 46 69 82 86 98
11 7 7 12 46 64 58 18 32 57 52 50 51 52 47 44 32 36 36 17 22 18 15 12 13 19 19 12 13 25 43 61 87 89 97 97 97 81 95 72 36 25 26 48 76 96 95 83 93
11 11 10 9 45 75 58 14 18 41 50 53 59 47 47 40 33 38 26 17 21 18 16 14 14 23 18 13 12 20 37 66 74 96 96 97 97 97 83 53 21 24 31 56 63 79 90 92 80
16 9 6 9 17 43 49 24 32 47 59 54 46 44 56 62 44 36 43 21 22 21 20 16 15 29 20 14 11 16 37 65 78 81 95 96 96 94 94 60 39 51 64 61 62 66 68 78 81
15 12 9 12 29 37 48 18 21 51 56 59 57 51 58 65 35 33 53 34 24 26 23 17 16 26 29 16 12 12 40 75 79 95 95 96 96 97 96 82 53 64 89 89 85 77 77 80 90
11 9 10 12 47 34 36 4 15 46 69 76 64 61 51 56 45 39 50 39 30 27 23 18 20 19 37 18 14 13 59 63 68 84 97 93 97 97 96 95 92 95 96 94 94 96 96 95 94
10 27 21 18 26 18 51 6 21 50 69 79 75 79 81 64 55 54 64 32 30 27 23 19 25 15 36 23 16 17 33 51 75 98 91 96 95 96 97 96 94 93 92 95 96 97 97 96 96
14 47 31 31 29 31 32 35 7 46 62 78 78 86 96 76 54 66 68 43 27 26 21 20 28 21 17 33 17 16 22 40 75 75 97 97 96 97 97 97 96 97 96 98 96 98 97 94 97
29 47 52 52 49 23 33 63 20 39 76 85 78 100 97 95 64 58 53 62 32 24 19 22 31 26 21 18 30 29 24 33 75 72 78 88 97 96 96 97 97 97 96 96 96 97 96 99 96
19 54 54 43 32 15 36 62 36 57 81 70 69 66 80 70 56 57 53 84 36 22 18 20 29 27 25 22 16 33 43 49 60 76 62 69 84 96 97 97 96 97 97 98 97 97 97 97 97
58 69 56 56 50 57 75 52 52 67 73 72 69 60 77 75 67 54 53 59 29 23 18 16 17 16 16 14 22 14 22 46 72 75 77 76 74 64 95 97 97 97 97 96 97 97 97 97 97
49 90 80 87 74 64 72 67 62 78 88 66 72 85 99 72 86 94 92 41 25 24 21 14 13 12 10 10 11 23 16 13 16 18 16 26 69 91 94 97 97 98 96 96 96 97 97 95 94
49 80 94 86 76 75 59 63 73 85 91 100 80 100 97 93 98 98 75 41 27 27 23 19 17 14 11 11 13 12 20 21 12 11 11 11 16 62 80 95 100 100 85 86 91 92 92 82 77
55 75 100 100 93 81 70 69 88 96 86 98 88 88 92 86 94 98 97 76 33 29 27 22 22 17 14 11 11 13 14 18 27 20 15 13 16 18 50 99 85 56 54 49 53 42 35 35 33
75 98 99 91 75 79 73 69 87 96 94 98 100 92 85 82 79 95 85 83 35 32 32 28 27 23 19 15 12 12 16 17 28 28 28 23 22 21 25 28 29 29 32 39 41 40 37 34 30
Wind_Speed
21 19 19 16 13 16 20 20 24 19 12 16 18 25 30 32 30 30 30 25 27 28 28 28 28 27 28 30 32 28 24 23 18 27 28 33 38 39 36 34 32 28 27 27 26 26 24 21 23
22 20 20 17 15 16 21 20 23 20 14 17 21 25 29 30 30 33 28 25 22 21 22 25 27 29 29 29 30 27 25 26 29 29 29 28 33 35 35 30 28 29 27 26 27 27 28 24 23
23 22 21 17 16 18 20 24 24 20 13 14 21 23 25 29 26 29 29 27 19 18 21 24 28 28 29 27 26 24 25 25 26 27 29 29 30 31 29 28 27 28 28 27 29 29 30 28 25
22 23 21 15 17 20 23 29 27 28 15 19 21 23 27 29 30 27 26 28 24 24 26 26 28 29 27 27 25 27 28 28 30 31 27 40 37 34 27 26 27 28 26 25 24 26 30 25 29
22 23 22 14 18 21 24 28 32 29 12 20 25 27 30 26 26 31 27 24 24 24 26 29 27 29 26 23 26 27 28 30 31 31 27 30 39 40 25 25 29 30 29 23 25 26 23 29 27
23 25 21 19 21 18 21 31 32 25 19 21 24 28 31 30 27 30 27 25 25 26 30 29 25 26 26 26 26 26 28 29 29 36 37 33 43 32 36 32 31 31 29 26 24 25 27 29 26
26 28 22 21 18 19 28 30 27 24 24 21 21 26 29 28 27 28 28 23 23 26 27 26 24 19 14 18 21 26 30 33 33 35 37 39 30 36 29 38 34 31 30 26 26 31 31 33 29
28 30 21 21 20 25 31 32 31 27 28 22 20 26 29 26 24 27 26 24 22 27 26 24 21 20 17 21 19 26 34 35 36 36 32 28 24 32 31 30 30 29 27 28 29 33 32 31 35
29 30 18 20 23 28 32 32 32 31 28 22 21 26 28 26 21 27 28 25 19 26 27 26 24 21 22 23 14 12 17 25 26 29 27 25 22 35 23 28 32 30 27 28 31 35 31 34 38
29 31 19 23 26 29 33 32 30 32 29 23 25 28 31 28 26 25 28 26 17 22 22 27 26 23 23 20 18 15 16 19 21 23 24 27 23 39 39 32 30 31 31 26 29 33 28 33 31
30 31 24 26 25 32 33 33 33 29 23 25 26 32 34 30 28 26 28 25 18 18 25 24 26 24 24 22 19 15 13 15 20 26 30 31 32 36 35 34 35 36 31 23 28 27 25 26 20
33 31 27 27 29 31 31 33 34 31 22 23 26 32 34 30 30 26 26 27 20 17 21 26 24 26 24 22 20 16 12 13 21 28 30 30 32 34 40 42 31 33 28 28 27 30 27 20 21
34 28 31 30 31 27 33 34 35 30 26 25 28 30 33 28 31 25 25 27 23 23 19 25 27 26 23 19 18 14 14 16 20 27 32 32 34 40 44 46 23 26 31 24 32 32 21 22 24
33 32 31 32 31 26 29 30 37 25 26 29 29 29 31 29 31 28 24 26 23 25 24 25 28 23 22 17 16 13 12 15 22 25 30 33 36 42 53 47 26 29 30 23 24 29 26 25 23
38 31 29 29 30 29 28 32 32 29 32 35 31 29 29 29 30 23 21 23 23 27 25 26 26 22 20 14 14 11 8 16 9 14 22 42 52 46 46 35 31 32 28 27 25 27 29 27 24
39 34 29 29 29 29 30 29 28 26 34 35 33 27 30 29 29 19 21 19 22 25 26 26 25 19 14 11 12 10 7 13 9 7 27 36 45 42 39 37 31 35 31 29 30 33 35 30 27
40 36 29 28 28 30 34 30 32 31 37 39 36 27 27 27 23 13 19 21 19 22 25 24 24 17 10 9 11 9 6 4 13 12 22 38 41 46 40 28 31 33 31 29 27 31 30 28 28
37 32 31 32 31 35 37 34 36 41 40 42 42 29 23 25 19 11 20 20 17 20 23 23 22 20 12 9 12 10 6 4 1 2 33 39 52 48 36 24 30 29 33 31 24 24 31 33 30
37 36 35 34 35 37 38 36 37 40 42 44 44 35 19 25 21 13 13 17 16 18 20 22 22 19 13 10 12 12 8 5 5 4 13 45 46 43 43 27 28 32 28 24 22 26 29 35 34
36 36 34 35 36 39 39 38 40 40 43 45 41 33 25 28 22 15 10 15 16 17 19 20 20 18 13 12 11 13 9 5 3 10 13 37 47 53 47 33 30 26 25 19 20 22 24 28 31
38 37 34 36 36 39 43 43 42 40 42 43 37 24 29 29 24 15 13 13 17 16 18 17 17 17 13 12 11 11 9 6 3 13 23 24 42 48 47 30 28 25 25 19 19 19 22 25 29
34 37 38 38 39 41 44 45 42 41 44 44 37 34 30 31 23 17 12 16 18 15 16 15 15 15 12 10 13 12 11 3 3 15 22 33 36 44 47 36 30 30 30 26 24 23 23 26 26
33 37 38 38 40 42 44 47 42 36 40 44 39 41 33 38 27 17 11 16 20 14 13 13 13 13 9 9 11 12 14 7 5 8 20 32 36 43 45 37 35 42 34 30 29 29 26 27 27
38 38 39 41 43 45 44 41 36 34 33 37 41 43 32 38 24 19 12 17 16 14 11 13 12 12 8 6 6 7 11 12 9 9 13 14 23 24 30 40 34 29 33 38 34 33 25 26 28
36 39 41 43 44 42 37 38 34 34 30 36 38 37 36 28 21 17 14 15 20 16 10 12 13 13 11 5 3 4 8 11 13 12 13 13 16 26 25 24 28 31 26 33 31 34 33 34 29
32 35 40 40 38 32 31 38 31 30 27 28 31 31 34 29 22 15 14 22 20 15 12 10 12 12 13 8 6 4 5 7 11 15 16 17 17 16 17 22 25 30 30 31 32 34 40 34 30
34 40 38 36 38 35 35 33 29 22 19 22 26 24 33 25 23 16 18 23 20 15 14 13 12 11 8 6 8 9 8 8 9 9 11 13 19 19 22 22 17 17 22 22 21 25 27 23 26
36 32 37 39 40 37 37 32 30 26 27 29 29 33 32 22 24 25 21 22 19 17 16 16 15 14 10 7 6 9 14 13 13 12 11 11 11 18 23 17 17 18 19 19 19 18 22 26 27
35 39 39 38 37 35 36 30 24 27 36 36 36 32 35 36 37 34 26 25 25 23 20 19 19 18 13 10 7 5 9 14 14 12 10 9 10 15 17 17 16 16 16 16 15 19 19 21 23
34 37 38 42 39 34 30 25 34 33 42 26 39 39 38 39 38 33 28 27 28 26 24 23 22 22 17 14 9 6 5 12 11 11 11 10 11 12 14 15 15 16 17 17 20 21 22 24 26
Wind_Direction
282 283 279 275 282 283 290 289 292 293 310 329 315 301 296 292 294 305 303 293 295 296 298 293 292 289 286 287 284 272 276 258 242 245 260 254 249 254 249 245 241 235 232 234 234 232 233 234 240
282 280 278 275 282 283 284 288 292 298 317 315 312 299 291 292 304 308 304 298 299 299 293 291 289 283 278 282 282 269 263 251 257 260 264 261 254 250 247 244 241 237 234 231 226 233 236 232 231
283 283 279 279 276 275 275 280 291 297 289 305 305 302 294 292 302 310 306 309 300 292 299 295 286 279 275 275 274 266 255 250 246 251 253 266 263 254 244 240 237 233 234 231 230 234 236 231 232
278 279 278 279 280 281 276 289 293 293 306 311 311 310 301 303 305 318 311 313 305 302 301 297 287 278 267 264 263 260 263 252 250 246 240 252 266 239 239 225 228 234 230 228 231 233 237 229 234
272 273 276 270 273 284 289 284 286 286 297 305 311 308 299 298 303 317 318 315 304 302 305 305 292 284 275 265 258 256 257 254 247 250 235 215 257 240 214 206 216 223 226 226 226 232 229 228 232
272 268 271 277 284 289 281 277 281 287 287 286 291 296 299 308 312 322 317 316 316 315 309 305 299 290 277 266 256 247 247 251 256 254 229 264 252 211 218 207 217 223 223 225 231 226 225 228 216
270 270 267 270 274 264 258 269 274 280 280 282 285 291 299 304 311 326 325 325 320 311 310 309 304 300 295 288 276 261 248 250 251 255 257 239 243 236 207 216 210 219 222 218 224 222 217 215 214
269 273 270 274 275 262 272 273 277 280 281 277 291 297 298 307 310 318 323 316 312 312 314 309 299 292 272 316 283 272 252 248 249 250 253 249 244 210 198 212 209 207 209 217 221 226 225 226 208
263 271 269 267 262 266 269 277 281 280 289 294 287 292 293 302 307 312 321 318 316 314 318 315 310 291 282 298 306 296 270 258 249 249 246 245 220 201 180 204 206 204 204 214 222 231 235 221 214
266 269 265 257 259 265 270 277 275 281 292 304 292 294 297 302 311 311 318 319 319 310 312 314 316 304 291 293 287 299 304 273 258 247 228 219 227 215 217 217 216 218 211 222 225 235 236 234 209
267 269 257 255 256 263 271 277 279 278 287 290 293 294 294 299 306 312 319 316 317 304 300 307 315 312 294 286 284 288 295 275 242 238 239 242 230 213 216 209 211 212 219 233 227 233 242 203 188
258 266 259 254 254 261 274 272 273 270 277 279 281 283 292 299 301 307 313 307 316 304 300 304 313 309 296 277 274 276 276 282 261 257 246 228 213 214 199 201 202 213 221 223 218 222 200 180 196
258 261 264 258 254 259 267 277 279 271 275 276 274 278 288 292 292 301 304 307 317 309 307 308 303 305 300 271 272 267 265 292 279 253 244 229 225 216 201 201 204 209 214 203 215 209 204 197 207
254 257 259 265 264 261 260 267 271 276 268 269 264 275 282 286 288 297 305 312 310 305 313 317 310 306 303 274 270 273 272 314 280 253 232 216 203 186 190 203 212 201 207 201 205 205 213 217 216
253 258 269 268 267 266 265 263 265 266 263 266 266 269 276 284 281 288 299 307 300 301 314 323 320 310 305 271 271 275 303 334 271 207 200 194 178 182 192 200 205 209 208 213 212 215 213 226 222
255 257 265 269 267 264 260 269 269 260 263 266 268 271 277 283 280 297 292 287 291 303 313 326 320 309 309 271 272 269 284 353 221 223 202 184 179 189 198 207 208 211 208 212 222 219 223 233 233
253 259 268 268 262 258 254 264 264 253 255 263 266 264 266 278 282 291 266 279 287 304 312 330 318 314 310 268 263 272 271 351 346 198 169 185 184 190 201 212 213 203 207 214 213 217 222 229 236
258 262 258 259 254 249 248 262 260 259 257 257 258 258 261 273 280 270 262 275 287 303 314 327 318 317 310 273 259 264 250 236 215 207 216 204 189 195 202 216 206 204 208 213 213 221 228 233 240
248 250 257 257 254 251 253 256 258 263 267 265 263 257 263 273 272 254 271 282 288 300 313 320 316 320 303 273 256 258 254 236 200 243 196 199 191 198 207 219 209 203 211 220 217 230 239 241 246
253 257 264 260 255 260 259 257 254 256 261 262 267 262 249 260 266 271 272 276 284 296 306 312 312 317 304 277 254 251 246 234 250 194 201 199 206 208 205 217 214 203 213 225 226 235 239 244 248
247 256 258 259 255 257 257 262 252 252 258 266 267 253 253 258 267 273 273 271 271 286 299 303 306 312 313 267 241 241 230 247 267 207 213 203 205 203 211 202 203 210 221 231 237 236 241 251 252
250 247 249 254 256 257 258 265 258 250 256 258 264 246 253 257 263 268 267 250 260 271 291 292 297 304 315 277 238 222 222 197 207 205 212 204 215 217 217 214 218 221 229 242 243 238 246 258 258
248 244 251 253 254 256 261 264 260 252 254 254 257 244 249 253 250 248 254 250 259 268 282 277 284 295 303 303 238 221 213 198 166 183 202 208 224 219 214 222 236 232 234 241 238 232 251 257 250
238 240 243 248 253 257 260 268 261 256 256 251 248 245 240 244 238 230 231 247 255 259 268 264 266 282 292 298 285 220 212 201 170 182 181 199 204 218 225 227 229 234 238 241 248 238 246 247 251
240 237 241 245 249 260 266 267 264 261 253 254 246 247 230 222 238 217 218 254 249 252 257 251 252 264 274 283 268 226 202 208 205 190 152 155 195 213 215 223 231 233 220 228 234 242 244 247 238
241 246 249 253 260 272 266 259 260 261 250 255 244 237 229 212 215 208 220 237 239 237 246 243 248 254 260 248 242 225 197 206 217 215 210 194 177 157 181 215 227 229 226 230 231 238 245 230 225
227 231 242 250 256 259 257 257 255 239 233 233 235 220 213 199 210 220 248 234 236 225 238 226 226 232 223 212 220 213 211 215 214 210 209 203 212 193 182 194 199 211 220 222 229 232 225 226 221
231 231 235 239 242 247 255 250 242 224 213 218 218 200 201 193 216 216 222 230 231 225 230 226 225 226 215 222 220 214 208 207 216 219 217 208 198 207 217 202 203 216 206 201 205 215 223 223 227
230 227 218 234 245 244 247 242 221 217 206 216 203 208 201 199 203 203 216 227 227 223 227 227 230 226 221 227 253 244 218 208 200 207 211 221 199 202 200 203 211 212 217 220 222 228 232 233 233
228 231 229 230 237 238 233 230 230 228 209 194 207 212 211 208 206 215 215 210 226 222 223 227 232 234 237 232 233 247 245 213 206 205 197 197 211 214 211 214 217 224 225 221 227 233 236 235 236